Flag for U.S.A. Weather past 2 weeks in Sacramento, California, U.S.A.

Now
64 °F

Clear.


Feels Like: 64 °F
Forecast: 61 / 93 °F
Wind: 5 mph from South

Location: Sacramento Executive Airport

Current Time: Aug 28, 2014 at 7:04:34 AM

Latest Report: Aug 28, 2014 at 5:53 AM


Visibility: 10 mi

Pressure: 30.00 "Hg

Humidity: 70%

Dew point: 54 °F

Location of SacramentoLocation

Historic Weather in Sacramento — Graph

°F

Sacramento temperature yesterday

Maximum temperature yesterday: 95 °F (at 4:53 PM)
Minimum temperature yesterday: 63 °F (at 6:53 AM)
Average temperature yesterday: 77 °F

Past Weeks' High & Low Weather Summary

 TemperatureHumidityPressure
High95 °F (Aug 27, 4:53 PM)90% (Aug 18, 3:53 AM)30.05 "Hg (Aug 18, 3:53 AM)
Low57 °F (Aug 17, 6:53 AM)13% (Aug 17, 4:53 PM)29.71 "Hg (Aug 18, 6:53 PM)
Average72 °F59%29.88 "Hg
* Reported Aug 13 8:53 AM — Aug 28 5:53 AM, Sacramento, Weather by CustomWeather, © 2014

Note: Actual official high and low records may vary slightly from our data, if they occured in-between our weather recording intervals... More about our weather records

Advertising

Sacramento weather history for previous 24 hours

 ConditionsComfort  
Time TempWeatherWind HumidityBarometerVisibility
5:53 AM
Aug 28
64 °FClear.5 mph70%30.00 "Hg10 mi
4:53 AM65 °FClear.3 mph66%30.00 "Hg10 mi
3:53 AM66 °FClear.5 mph65%30.00 "Hg10 mi
2:53 AM66 °FClear.5 mph68%30.00 "Hg10 mi
1:53 AM67 °FClear.5 mph68%29.99 "Hg10 mi
12:53 AM68 °FClear.No wind65%29.99 "Hg10 mi
11:53 PM
Aug 27
69 °FClear.7 mph61%29.98 "Hg10 mi
10:53 PM72 °FClear.6 mph53%29.97 "Hg10 mi
9:53 PM74 °FClear.6 mph46%29.96 "Hg10 mi
8:53 PM78 °FClear.9 mph42%29.95 "Hg10 mi
7:53 PM84 °FSunny.7 mph38%29.93 "Hg10 mi
6:53 PM92 °FSunny.9 mph23%29.92 "Hg10 mi
5:53 PM93 °FSunny.5 mph24%29.93 "Hg10 mi
4:53 PM95 °FSunny.6 mph20%29.93 "Hg10 mi
3:53 PM93 °FSunny.6 mph23%29.95 "Hg10 mi
2:53 PM92 °FSunny.7 mph29%29.97 "Hg10 mi
1:53 PM90 °FSunny.3 mph28%29.99 "Hg10 mi
12:53 PM86 °FSunny.No wind36%30.01 "Hg10 mi
11:53 AM82 °FSunny.No wind44%30.03 "Hg10 mi
10:53 AM78 °FSunny.3 mph50%30.05 "Hg10 mi
9:53 AM73 °FSunny.No wind59%30.05 "Hg10 mi
8:53 AM68 °FSunny.9 mph70%30.04 "Hg10 mi
7:53 AM65 °FSunny.7 mph76%30.03 "Hg10 mi
Weather by CustomWeather, © 2014

See weather overviewHow to use our weather pages